sat.trackr.live / text

‹ back to catalog

STARLINK-2570

NORAD 48405 · 2021-038BE

PAYLOAD ACTIVE UNKNOWN

§ Identity

Operator
Country
US
Launch date
2021-05-04
Launch site
AFETR
Launch vehicle
Mass (kg)
RCS (m²)

Purposes: comms

External: N2YO · Heavens-Above · Gunter

§ Orbital elements

Epoch: 2026-09-20T01:11:02.748768Z

Period
94.01 min
Inclination
53.1606°
Eccentricity
0.0001126
Mean motion
15.31698257 rev/d
Perigee alt
470.0 km
Apogee alt
471.5 km
Semi-major
6,848.9 km
B*
-2.3317e-6
RAAN
148.3311°
Arg perigee
99.2564°
Mean anomaly
260.8565°
Rev number
29,721

§ Raw data

STARLINK-25701 48405U 21038BE  26263.04933737 -.00000437  00000+0 -23317-5 0  99962 48405  53.1606 148.3311 0001126  99.2564 260.8565 15.31698257297210

JSON: /api/v1/satellites/48405 · /tle

For live sub-satellite position, see the globe view (requires WebGL).

§ Visibility from observer

Set your observer location to see the next 7 days of passes ≥ 10°. The values pass through the URL so the page stays shareable.

No JS? Fill the form by hand. The geolocation button needs JavaScript.